Tracking 31027 objects as of 19-Jul-2025
HD Live streaming from Space Station
objects crossing your sky now

ONEWEB-0351

Track ONEWEB-0351 now!
10-day predictions
ONEWEB-0351 is classified as:


NORAD ID: 49215
Int'l Code: 2021-083AF
Perigee: 1,186.9 km
Apogee: 1,190.7 km
Inclination: 87.9 °
Period: 109.0 minutes
Semi major axis: 7559 km
RCS: Unknown
Launch date: September 14, 2021
Source: United Kingdom (UK)
Launch site: TYURATAM MISSILE AND SPACE COMPLEX (TTMTR)
Your satellite tracking list
FLOCK 4X 28
Track 1 satellite(s)




NASA's NSSDC Master Catalog

Two Line Element Set (TLE):
1 49215U 21083AF  25199.62625481  .00002623  00000-0  64144-2 0  9999
2 49215  87.9281 340.8786 0002531  82.4915 277.6506 13.20795649192746
Source of the keplerian elements: AFSPC